Year,Month,Day,Hour,Minute,Value (Times are PST for barometer in hPa)
2020,11,17,00,00,998.82
2020,11,17,00,01,998.95
2020,11,17,00,02,999.09
2020,11,17,00,03,999.15
2020,11,17,00,04,999.05
2020,11,17,00,05,998.99
2020,11,17,00,06,998.99
2020,11,17,00,07,999.05
2020,11,17,00,08,999.05
2020,11,17,00,09,998.94
2020,11,17,00,10,998.78
2020,11,17,00,11,998.71
2020,11,17,00,12,998.64
2020,11,17,00,13,998.41
2020,11,17,00,14,998.27
2020,11,17,00,15,998.39
2020,11,17,00,16,998.51
2020,11,17,00,17,998.44
2020,11,17,00,18,998.38
2020,11,17,00,19,998.34
2020,11,17,00,20,998.24
2020,11,17,00,21,998.21
2020,11,17,00,22,998.10
2020,11,17,00,23,998.04
2020,11,17,00,24,998.07
2020,11,17,00,25,998.04
2020,11,17,00,26,997.94
2020,11,17,00,27,997.90
2020,11,17,00,28,997.83
2020,11,17,00,29,997.77
2020,11,17,00,30,997.83
2020,11,17,00,31,997.73
2020,11,17,00,32,997.83
2020,11,17,00,33,997.70
2020,11,17,00,34,997.56
2020,11,17,00,35,997.53
2020,11,17,00,36,997.50
2020,11,17,00,37,997.50
2020,11,17,00,38,997.46
2020,11,17,00,39,997.56
2020,11,17,00,40,997.63
2020,11,17,00,41,997.63
2020,11,17,00,42,997.63
2020,11,17,00,43,997.63
2020,11,17,00,44,997.63
2020,11,17,00,45,997.73
2020,11,17,00,46,997.77
2020,11,17,00,47,997.73
2020,11,17,00,48,997.70
2020,11,17,00,49,997.60
2020,11,17,00,50,997.53
2020,11,17,00,51,997.33
2020,11,17,00,52,997.19
2020,11,17,00,53,997.05
2020,11,17,00,54,996.95
2020,11,17,00,55,996.95
2020,11,17,00,56,997.02
2020,11,17,00,57,996.99
2020,11,17,00,58,997.05
2020,11,17,00,59,997.09
2020,11,17,01,00,996.99
2020,11,17,01,01,996.92
2020,11,17,01,02,996.85
2020,11,17,01,03,996.85
2020,11,17,01,04,996.89
2020,11,17,01,05,996.89
2020,11,17,01,06,996.82
2020,11,17,01,07,996.75
2020,11,17,01,08,996.78
2020,11,17,01,09,996.78
2020,11,17,01,10,996.82
2020,11,17,01,11,996.78
2020,11,17,01,12,996.72
2020,11,17,01,13,996.75
2020,11,17,01,14,996.67
2020,11,17,01,15,996.55
2020,11,17,01,16,996.48
2020,11,17,01,17,996.45
2020,11,17,01,18,996.48
2020,11,17,01,19,996.51
2020,11,17,01,20,996.45
2020,11,17,01,21,996.34
2020,11,17,01,22,996.28
2020,11,17,01,23,996.17
2020,11,17,01,24,996.24
2020,11,17,01,25,996.24
2020,11,17,01,26,996.24
2020,11,17,01,27,996.14
2020,11,17,01,28,996.07
2020,11,17,01,29,995.97
2020,11,17,01,30,995.94
2020,11,17,01,31,995.97
2020,11,17,01,32,995.84
2020,11,17,01,33,995.70
2020,11,17,01,34,995.67
2020,11,17,01,35,995.77
2020,11,17,01,36,995.87
2020,11,17,01,37,995.73
2020,11,17,01,38,995.63
2020,11,17,01,39,995.53
2020,11,17,01,40,995.40
2020,11,17,01,41,995.36
2020,11,17,01,42,995.40
2020,11,17,01,43,995.43
2020,11,17,01,44,995.40
2020,11,17,01,45,995.43
2020,11,17,01,46,995.40
2020,11,17,01,47,995.36
2020,11,17,01,48,995.43
2020,11,17,01,49,995.40
2020,11,17,01,50,995.33
2020,11,17,01,51,995.33
2020,11,17,01,52,995.36
2020,11,17,01,53,995.33
2020,11,17,01,54,995.33
2020,11,17,01,55,995.23
2020,11,17,01,56,995.26
2020,11,17,01,57,995.26
2020,11,17,01,58,995.26
2020,11,17,01,59,995.29
2020,11,17,02,00,995.33
2020,11,17,02,01,995.26
2020,11,17,02,02,995.15
2020,11,17,02,03,994.96
2020,11,17,02,04,994.96
2020,11,17,02,05,994.96
2020,11,17,02,06,994.92
2020,11,17,02,07,994.92
2020,11,17,02,08,994.82
2020,11,17,02,09,994.68
2020,11,17,02,10,994.62
2020,11,17,02,11,994.55
2020,11,17,02,12,994.55
2020,11,17,02,13,994.58
2020,11,17,02,14,994.62
2020,11,17,02,15,994.65
2020,11,17,02,16,994.65
2020,11,17,02,17,994.57
2020,11,17,02,18,994.42
2020,11,17,02,19,994.62
2020,11,17,02,20,994.58
2020,11,17,02,21,994.52
2020,11,17,02,22,994.52
2020,11,17,02,23,994.41
2020,11,17,02,24,994.31
2020,11,17,02,25,994.24
2020,11,17,02,26,994.18
2020,11,17,02,27,994.14
2020,11,17,02,28,994.18
2020,11,17,02,29,994.14
2020,11,17,02,30,994.14
2020,11,17,02,31,994.14
2020,11,17,02,32,994.21
2020,11,17,02,33,994.21
2020,11,17,02,34,994.17
2020,11,17,02,35,994.04
2020,11,17,02,36,993.94
2020,11,17,02,37,993.84
2020,11,17,02,38,993.84
2020,11,17,02,39,993.87
2020,11,17,02,40,993.80
2020,11,17,02,41,993.84
2020,11,17,02,42,993.80
2020,11,17,02,43,993.77
2020,11,17,02,44,993.74
2020,11,17,02,45,993.67
2020,11,17,02,46,993.74
2020,11,17,02,47,993.70
2020,11,17,02,48,993.67
2020,11,17,02,49,993.67
2020,11,17,02,50,993.74
2020,11,17,02,51,993.80
2020,11,17,02,52,993.77
2020,11,17,02,53,993.77
2020,11,17,02,54,993.70
2020,11,17,02,55,993.60
2020,11,17,02,56,993.50
2020,11,17,02,57,993.36
2020,11,17,02,58,993.33
2020,11,17,02,59,993.30
2020,11,17,03,00,993.19
2020,11,17,03,01,993.09
2020,11,17,03,02,993.09
2020,11,17,03,03,993.09
2020,11,17,03,04,992.92
2020,11,17,03,05,992.99
2020,11,17,03,06,992.99
2020,11,17,03,07,992.96
2020,11,17,03,08,992.89
2020,11,17,03,09,992.99
2020,11,17,03,10,992.99
2020,11,17,03,11,992.89
2020,11,17,03,12,992.89
2020,11,17,03,13,992.72
2020,11,17,03,14,992.65
2020,11,17,03,15,992.69
2020,11,17,03,16,992.69
2020,11,17,03,17,992.65
2020,11,17,03,18,992.58
2020,11,17,03,19,992.52
2020,11,17,03,20,992.42
2020,11,17,03,21,992.35
2020,11,17,03,22,992.45
2020,11,17,03,23,992.42
2020,11,17,03,24,992.38
2020,11,17,03,25,992.35
2020,11,17,03,26,992.42
2020,11,17,03,27,992.42
2020,11,17,03,28,992.35
2020,11,17,03,29,992.31
2020,11,17,03,30,992.35
2020,11,17,03,31,992.28
2020,11,17,03,32,992.14
2020,11,17,03,33,992.01
2020,11,17,03,34,992.04
2020,11,17,03,35,992.08
2020,11,17,03,36,992.08
2020,11,17,03,37,992.01
2020,11,17,03,38,991.91
2020,11,17,03,39,991.98
2020,11,17,03,40,991.98
2020,11,17,03,41,991.90
2020,11,17,03,42,991.70
2020,11,17,03,43,991.77
2020,11,17,03,44,991.84
2020,11,17,03,45,991.81
2020,11,17,03,46,991.70
2020,11,17,03,47,991.67
2020,11,17,03,48,991.70
2020,11,17,03,49,991.64
2020,11,17,03,50,991.53
2020,11,17,03,51,991.50
2020,11,17,03,52,991.40
2020,11,17,03,53,991.47
2020,11,17,03,54,991.40
2020,11,17,03,55,991.47
2020,11,17,03,56,991.37
2020,11,17,03,57,991.33
2020,11,17,03,58,991.30
2020,11,17,03,59,991.16
2020,11,17,04,00,991.16
2020,11,17,04,01,991.13
2020,11,17,04,02,991.13
2020,11,17,04,03,991.09
2020,11,17,04,04,991.06
2020,11,17,04,05,990.99
2020,11,17,04,06,991.06
2020,11,17,04,07,991.09
2020,11,17,04,08,990.79
2020,11,17,04,09,990.69
2020,11,17,04,10,990.82
2020,11,17,04,11,990.93
2020,11,17,04,12,990.93
2020,11,17,04,13,990.99
2020,11,17,04,14,991.03
2020,11,17,04,15,990.96
2020,11,17,04,16,990.86
2020,11,17,04,17,990.76
2020,11,17,04,18,990.65
2020,11,17,04,19,990.72
2020,11,17,04,20,990.76
2020,11,17,04,21,990.86
2020,11,17,04,22,990.86
2020,11,17,04,23,990.72
2020,11,17,04,24,990.59
2020,11,17,04,25,990.42
2020,11,17,04,26,990.59
2020,11,17,04,27,990.59
2020,11,17,04,28,990.49
2020,11,17,04,29,990.45
2020,11,17,04,30,990.38
2020,11,17,04,31,990.42
2020,11,17,04,32,990.49
2020,11,17,04,33,990.38
2020,11,17,04,34,990.28
2020,11,17,04,35,990.18
2020,11,17,04,36,990.32
2020,11,17,04,37,990.38
2020,11,17,04,38,990.08
2020,11,17,04,39,990.08
2020,11,17,04,40,989.88
2020,11,17,04,41,989.74
2020,11,17,04,42,989.84
2020,11,17,04,43,989.91
2020,11,17,04,44,989.88
2020,11,17,04,45,989.81
2020,11,17,04,46,989.81
2020,11,17,04,47,989.77
2020,11,17,04,48,989.71
2020,11,17,04,49,989.71
2020,11,17,04,50,989.64
2020,11,17,04,51,989.40
2020,11,17,04,52,989.44
2020,11,17,04,53,989.50
2020,11,17,04,54,989.54
2020,11,17,04,55,989.40
2020,11,17,04,56,989.40
2020,11,17,04,57,989.23
2020,11,17,04,58,989.20
2020,11,17,04,59,989.23
2020,11,17,05,00,989.23
2020,11,17,05,01,989.10
2020,11,17,05,02,989.16
2020,11,17,05,03,989.13
2020,11,17,05,04,989.03
2020,11,17,05,05,989.03
2020,11,17,05,06,989.03
2020,11,17,05,07,989.00
2020,11,17,05,08,989.06
2020,11,17,05,09,988.86
2020,11,17,05,10,988.86
2020,11,17,05,11,988.89
2020,11,17,05,12,988.89
2020,11,17,05,13,988.89
2020,11,17,05,14,989.00
2020,11,17,05,15,988.96
2020,11,17,05,16,988.86
2020,11,17,05,17,988.86
2020,11,17,05,18,988.89
2020,11,17,05,19,988.86
2020,11,17,05,20,988.76
2020,11,17,05,21,988.79
2020,11,17,05,22,988.76
2020,11,17,05,23,988.72
2020,11,17,05,24,988.76
2020,11,17,05,25,988.83
2020,11,17,05,26,988.76
2020,11,17,05,27,988.69
2020,11,17,05,28,988.66
2020,11,17,05,29,988.59
2020,11,17,05,30,988.62
2020,11,17,05,31,988.55
2020,11,17,05,32,988.45
2020,11,17,05,33,988.39
2020,11,17,05,34,988.22
2020,11,17,05,35,988.11
2020,11,17,05,36,988.15
2020,11,17,05,37,988.22
2020,11,17,05,38,988.15
2020,11,17,05,39,988.11
2020,11,17,05,40,987.88
2020,11,17,05,41,987.71
2020,11,17,05,42,987.81
2020,11,17,05,43,987.78
2020,11,17,05,44,987.81
2020,11,17,05,45,987.71
2020,11,17,05,46,987.61
2020,11,17,05,47,987.64
2020,11,17,05,48,987.61
2020,11,17,05,49,987.57
2020,11,17,05,50,987.47
2020,11,17,05,51,987.40
2020,11,17,05,52,987.27
2020,11,17,05,53,987.27
2020,11,17,05,54,987.34
2020,11,17,05,55,987.34
2020,11,17,05,56,987.43
2020,11,17,05,57,987.29
2020,11,17,05,58,987.17
2020,11,17,05,59,987.17
2020,11,17,06,00,987.20
2020,11,17,06,01,987.27
2020,11,17,06,02,987.18
2020,11,17,06,03,987.34
2020,11,17,06,04,987.34
2020,11,17,06,05,987.27
2020,11,17,06,06,987.23
2020,11,17,06,07,987.03
2020,11,17,06,08,986.90
2020,11,17,06,09,986.90
2020,11,17,06,10,986.76
2020,11,17,06,11,986.59
2020,11,17,06,12,986.59
2020,11,17,06,13,986.56
2020,11,17,06,14,986.59
2020,11,17,06,15,986.35
2020,11,17,06,16,986.25
2020,11,17,06,17,986.25
2020,11,17,06,18,986.12
2020,11,17,06,19,986.12
2020,11,17,06,20,986.12
2020,11,17,06,21,986.12
2020,11,17,06,22,986.15
2020,11,17,06,23,986.22
2020,11,17,06,24,986.02
2020,11,17,06,25,985.98
2020,11,17,06,26,986.12
2020,11,17,06,27,986.21
2020,11,17,06,28,985.83
2020,11,17,06,29,985.36
2020,11,17,06,30,985.24
2020,11,17,06,31,985.34
2020,11,17,06,32,985.24
2020,11,17,06,33,985.12
2020,11,17,06,34,984.90
2020,11,17,06,35,985.13
2020,11,17,06,36,985.07
2020,11,17,06,37,985.03
2020,11,17,06,38,985.17
2020,11,17,06,39,984.93
2020,11,17,06,40,984.86
2020,11,17,06,41,984.83
2020,11,17,06,42,984.39
2020,11,17,06,43,984.46
2020,11,17,06,44,984.56
2020,11,17,06,45,984.19
2020,11,17,06,46,984.12
2020,11,17,06,47,984.06
2020,11,17,06,48,984.30
2020,11,17,06,49,984.49
2020,11,17,06,50,984.39
2020,11,17,06,51,984.29
2020,11,17,06,52,984.22
2020,11,17,06,53,984.18
2020,11,17,06,54,983.85
2020,11,17,06,55,983.71
2020,11,17,06,56,983.51
2020,11,17,06,57,983.44
2020,11,17,06,58,983.44
2020,11,17,06,59,983.44
2020,11,17,07,00,983.54
2020,11,17,07,01,983.45
2020,11,17,07,02,983.58
2020,11,17,07,03,983.68
2020,11,17,07,04,983.51
2020,11,17,07,05,983.45
2020,11,17,07,06,983.64
2020,11,17,07,07,983.64
2020,11,17,07,08,983.61
2020,11,17,07,09,983.68
2020,11,17,07,10,983.58
2020,11,17,07,11,983.68
2020,11,17,07,12,983.92
2020,11,17,07,13,983.88
2020,11,17,07,14,983.88
2020,11,17,07,15,983.85
2020,11,17,07,16,983.81
2020,11,17,07,17,983.85
2020,11,17,07,18,983.71
2020,11,17,07,19,983.68
2020,11,17,07,20,983.61
2020,11,17,07,21,983.54
2020,11,17,07,22,983.44
2020,11,17,07,23,983.54
2020,11,17,07,24,983.44
2020,11,17,07,25,983.54
2020,11,17,07,26,983.44
2020,11,17,07,27,983.34
2020,11,17,07,28,983.24
2020,11,17,07,29,983.14
2020,11,17,07,30,983.24
2020,11,17,07,31,983.24
2020,11,17,07,32,983.14
2020,11,17,07,33,983.00
2020,11,17,07,34,983.00
2020,11,17,07,35,982.97
2020,11,17,07,36,983.03
2020,11,17,07,37,982.90
2020,11,17,07,38,983.00
2020,11,17,07,39,983.10
2020,11,17,07,40,983.01
2020,11,17,07,41,983.20
2020,11,17,07,42,983.31
2020,11,17,07,43,983.24
2020,11,17,07,44,983.17
2020,11,17,07,45,983.27
2020,11,17,07,46,983.34
2020,11,17,07,47,983.20
2020,11,17,07,48,983.20
2020,11,17,07,49,983.14
2020,11,17,07,50,983.10
2020,11,17,07,51,983.24
2020,11,17,07,52,983.17
2020,11,17,07,53,983.17
2020,11,17,07,54,983.14
2020,11,17,07,55,983.00
2020,11,17,07,56,982.90
2020,11,17,07,57,982.89
2020,11,17,07,58,982.70
2020,11,17,07,59,982.80
2020,11,17,08,00,982.73
2020,11,17,08,01,982.66
2020,11,17,08,02,982.70
2020,11,17,08,03,982.66
2020,11,17,08,04,982.66
2020,11,17,08,05,982.53
2020,11,17,08,06,982.56
2020,11,17,08,07,982.56
2020,11,17,08,08,982.53
2020,11,17,08,09,982.56
2020,11,17,08,10,982.53
2020,11,17,08,11,982.56
2020,11,17,08,12,982.56
2020,11,17,08,13,982.36
2020,11,17,08,14,982.36
2020,11,17,08,15,982.29
2020,11,17,08,16,982.19
2020,11,17,08,17,982.22
2020,11,17,08,18,982.22
2020,11,17,08,19,982.09
2020,11,17,08,20,982.22
2020,11,17,08,21,982.15
2020,11,17,08,22,982.26
2020,11,17,08,23,982.22
2020,11,17,08,24,982.19
2020,11,17,08,25,982.22
2020,11,17,08,26,982.19
2020,11,17,08,27,982.29
2020,11,17,08,28,982.22
2020,11,17,08,29,982.09
2020,11,17,08,30,982.05
2020,11,17,08,31,982.05
2020,11,17,08,32,982.02
2020,11,17,08,33,982.05
2020,11,17,08,34,982.05
2020,11,17,08,35,982.09
2020,11,17,08,36,982.19
2020,11,17,08,37,982.09
2020,11,17,08,38,982.19
2020,11,17,08,39,982.12
2020,11,17,08,40,982.09
2020,11,17,08,41,982.05
2020,11,17,08,42,982.05
2020,11,17,08,43,982.02
2020,11,17,08,44,982.05
2020,11,17,08,45,981.92
2020,11,17,08,46,981.88
2020,11,17,08,47,981.78
2020,11,17,08,48,981.82
2020,11,17,08,49,981.71
2020,11,17,08,50,981.78
2020,11,17,08,51,981.65
2020,11,17,08,52,981.51
2020,11,17,08,53,981.48
2020,11,17,08,54,981.38
2020,11,17,08,55,981.27
2020,11,17,08,56,981.24
2020,11,17,08,57,981.17
2020,11,17,08,58,981.21
2020,11,17,08,59,981.27
2020,11,17,09,00,981.31
2020,11,17,09,01,981.27
2020,11,17,09,02,981.27
2020,11,17,09,03,981.17
2020,11,17,09,04,980.94
2020,11,17,09,05,980.77
2020,11,17,09,06,980.77
2020,11,17,09,07,980.80
2020,11,17,09,08,980.90
2020,11,17,09,09,980.77
2020,11,17,09,10,980.66
2020,11,17,09,11,980.66
2020,11,17,09,12,980.66
2020,11,17,09,13,980.60
2020,11,17,09,14,980.46
2020,11,17,09,15,980.46
2020,11,17,09,16,980.36
2020,11,17,09,17,980.33
2020,11,17,09,18,980.36
2020,11,17,09,19,980.26
2020,11,17,09,20,980.22
2020,11,17,09,21,980.22
2020,11,17,09,22,980.16
2020,11,17,09,23,980.22
2020,11,17,09,24,980.19
2020,11,17,09,25,980.02
2020,11,17,09,26,979.95
2020,11,17,09,27,980.09
2020,11,17,09,28,980.06
2020,11,17,09,29,979.98
2020,11,17,09,30,979.78
2020,11,17,09,31,979.89
2020,11,17,09,32,979.68
2020,11,17,09,33,979.61
2020,11,17,09,34,979.68
2020,11,17,09,35,979.68
2020,11,17,09,36,979.82
2020,11,17,09,37,979.68
2020,11,17,09,38,979.78
2020,11,17,09,39,979.55
2020,11,17,09,40,979.58
2020,11,17,09,41,979.78
2020,11,17,09,42,979.75
2020,11,17,09,43,979.95
2020,11,17,09,44,979.95
2020,11,17,09,45,979.85
2020,11,17,09,46,979.99
2020,11,17,09,47,979.89
2020,11,17,09,48,979.98
2020,11,17,09,49,979.85
2020,11,17,09,50,979.92
2020,11,17,09,51,980.12
2020,11,17,09,52,980.16
2020,11,17,09,53,979.99
2020,11,17,09,54,980.09
2020,11,17,09,55,980.16
2020,11,17,09,56,980.22
2020,11,17,09,57,980.39
2020,11,17,09,58,980.43
2020,11,17,09,59,980.60
2020,11,17,10,00,980.70
2020,11,17,10,01,980.66
2020,11,17,10,02,980.70
2020,11,17,10,03,980.83
2020,11,17,10,04,980.56
2020,11,17,10,05,980.56
2020,11,17,10,06,980.50
2020,11,17,10,07,980.36
2020,11,17,10,08,980.46
2020,11,17,10,09,980.60
2020,11,17,10,10,980.63
2020,11,17,10,11,980.73
2020,11,17,10,12,980.87
2020,11,17,10,13,980.90
2020,11,17,10,14,980.83
2020,11,17,10,15,980.94
2020,11,17,10,16,981.07
2020,11,17,10,17,980.94
2020,11,17,10,18,981.04
2020,11,17,10,19,980.90
2020,11,17,10,20,980.90
2020,11,17,10,21,980.94
2020,11,17,10,22,981.04
2020,11,17,10,23,981.07
2020,11,17,10,24,981.34
2020,11,17,10,25,981.15
2020,11,17,10,26,981.31
2020,11,17,10,27,981.48
2020,11,17,10,28,981.34
2020,11,17,10,29,981.48
2020,11,17,10,30,981.51
2020,11,17,10,31,981.55
2020,11,17,10,32,981.65
2020,11,17,10,33,981.75
2020,11,17,10,34,981.66
2020,11,17,10,35,981.78
2020,11,17,10,36,981.78
2020,11,17,10,37,981.85
2020,11,17,10,38,981.85
2020,11,17,10,39,981.88
2020,11,17,10,40,981.75
2020,11,17,10,41,981.85
2020,11,17,10,42,981.92
2020,11,17,10,43,981.88
2020,11,17,10,44,981.82
2020,11,17,10,45,981.88
2020,11,17,10,46,981.99
2020,11,17,10,47,982.28
2020,11,17,10,48,982.15
2020,11,17,10,49,982.12
2020,11,17,10,50,982.32
2020,11,17,10,51,982.36
2020,11,17,10,52,982.32
2020,11,17,10,53,982.39
2020,11,17,10,54,982.46
2020,11,17,10,55,982.39
2020,11,17,10,56,982.46
2020,11,17,10,57,982.43
2020,11,17,10,58,982.53
2020,11,17,10,59,982.43
2020,11,17,11,00,982.53
2020,11,17,11,01,982.43
2020,11,17,11,02,982.49
2020,11,17,11,03,982.39
2020,11,17,11,04,982.39
2020,11,17,11,05,982.53
2020,11,17,11,06,982.63
2020,11,17,11,07,982.56
2020,11,17,11,08,982.49
2020,11,17,11,09,982.59
2020,11,17,11,10,982.63
2020,11,17,11,11,982.56
2020,11,17,11,12,982.70
2020,11,17,11,13,982.56
2020,11,17,11,14,982.63
2020,11,17,11,15,982.56
2020,11,17,11,16,982.46
2020,11,17,11,17,982.73
2020,11,17,11,18,982.76
2020,11,17,11,19,982.83
2020,11,17,11,20,982.97
2020,11,17,11,21,982.83
2020,11,17,11,22,982.90
2020,11,17,11,23,982.87
2020,11,17,11,24,982.93
2020,11,17,11,25,982.97
2020,11,17,11,26,983.07
2020,11,17,11,27,983.14
2020,11,17,11,28,983.17
2020,11,17,11,29,983.17
2020,11,17,11,30,983.14
2020,11,17,11,31,983.14
2020,11,17,11,32,983.14
2020,11,17,11,33,983.14
2020,11,17,11,34,983.20
2020,11,17,11,35,983.07
2020,11,17,11,36,983.10
2020,11,17,11,37,983.20
2020,11,17,11,38,983.27
2020,11,17,11,39,983.27
2020,11,17,11,40,983.34
2020,11,17,11,41,983.41
2020,11,17,11,42,983.44
2020,11,17,11,43,983.37
2020,11,17,11,44,983.31
2020,11,17,11,45,983.34
2020,11,17,11,46,983.34
2020,11,17,11,47,983.31
2020,11,17,11,48,983.37
2020,11,17,11,49,983.41
2020,11,17,11,50,983.48
2020,11,17,11,51,983.37
2020,11,17,11,52,983.51
2020,11,17,11,53,983.48
2020,11,17,11,54,983.54
2020,11,17,11,55,983.58
2020,11,17,11,56,983.64
2020,11,17,11,57,983.64
2020,11,17,11,58,983.54
2020,11,17,11,59,983.58
2020,11,17,12,00,983.64
2020,11,17,12,01,983.64
2020,11,17,12,02,983.64
2020,11,17,12,03,983.68
2020,11,17,12,04,983.68
2020,11,17,12,05,983.68
2020,11,17,12,06,983.68
2020,11,17,12,07,983.71
2020,11,17,12,08,983.64
2020,11,17,12,09,983.71
2020,11,17,12,10,983.71
2020,11,17,12,11,983.78
2020,11,17,12,12,983.78
2020,11,17,12,13,983.75
2020,11,17,12,14,983.85
2020,11,17,12,15,983.88
2020,11,17,12,16,983.88
2020,11,17,12,17,983.92
2020,11,17,12,18,983.98
2020,11,17,12,19,983.98
2020,11,17,12,20,984.02
2020,11,17,12,21,984.02
2020,11,17,12,22,984.12
2020,11,17,12,23,984.15
2020,11,17,12,24,984.29
2020,11,17,12,25,984.32
2020,11,17,12,26,984.32
2020,11,17,12,27,984.36
2020,11,17,12,28,984.29
2020,11,17,12,29,984.32
2020,11,17,12,30,984.39
2020,11,17,12,31,984.49
2020,11,17,12,32,984.49
2020,11,17,12,33,984.56
2020,11,17,12,34,984.66
2020,11,17,12,35,984.59
2020,11,17,12,36,984.80
2020,11,17,12,37,984.83
2020,11,17,12,38,984.86
2020,11,17,12,39,984.90
2020,11,17,12,40,984.86
2020,11,17,12,41,984.86
2020,11,17,12,42,984.86
2020,11,17,12,43,984.93
2020,11,17,12,44,984.90
2020,11,17,12,45,984.90
2020,11,17,12,46,984.97
2020,11,17,12,47,984.97
2020,11,17,12,48,984.97
2020,11,17,12,49,985.03
2020,11,17,12,50,985.09
2020,11,17,12,51,984.97
2020,11,17,12,52,985.07
2020,11,17,12,53,985.10
2020,11,17,12,54,985.17
2020,11,17,12,55,985.07
2020,11,17,12,56,985.13
2020,11,17,12,57,985.20
2020,11,17,12,58,985.00
2020,11,17,12,59,985.10
2020,11,17,13,00,985.17
2020,11,17,13,01,985.17
2020,11,17,13,02,985.30
2020,11,17,13,03,985.34
2020,11,17,13,04,985.41
2020,11,17,13,05,985.47
2020,11,17,13,06,985.47
2020,11,17,13,07,985.61
2020,11,17,13,08,985.68
2020,11,17,13,09,985.71
2020,11,17,13,10,985.64
2020,11,17,13,11,985.74
2020,11,17,13,12,985.74
2020,11,17,13,13,985.74
2020,11,17,13,14,985.68
2020,11,17,13,15,985.78
2020,11,17,13,16,985.71
2020,11,17,13,17,985.78
2020,11,17,13,18,985.74
2020,11,17,13,19,985.78
2020,11,17,13,20,985.74
2020,11,17,13,21,985.78
2020,11,17,13,22,985.78
2020,11,17,13,23,985.85
2020,11,17,13,24,985.85
2020,11,17,13,25,986.02
2020,11,17,13,26,985.98
2020,11,17,13,27,986.02
2020,11,17,13,28,986.02
2020,11,17,13,29,986.05
2020,11,17,13,30,986.05
2020,11,17,13,31,986.15
2020,11,17,13,32,986.18
2020,11,17,13,33,986.25
2020,11,17,13,34,986.29
2020,11,17,13,35,986.32
2020,11,17,13,36,986.35
2020,11,17,13,37,986.32
2020,11,17,13,38,986.39
2020,11,17,13,39,986.42
2020,11,17,13,40,986.46
2020,11,17,13,41,986.39
2020,11,17,13,42,986.46
2020,11,17,13,43,986.52
2020,11,17,13,44,986.49
2020,11,17,13,45,986.52
2020,11,17,13,46,986.49
2020,11,17,13,47,986.52
2020,11,17,13,48,986.52
2020,11,17,13,49,986.59
2020,11,17,13,50,986.59
2020,11,17,13,51,986.66
2020,11,17,13,52,986.59
2020,11,17,13,53,986.62
2020,11,17,13,54,986.66
2020,11,17,13,55,986.73
2020,11,17,13,56,986.76
2020,11,17,13,57,986.90
2020,11,17,13,58,986.96
2020,11,17,13,59,986.90
2020,11,17,14,00,986.79
2020,11,17,14,01,986.90
2020,11,17,14,02,986.93
2020,11,17,14,03,986.96
2020,11,17,14,04,987.00
2020,11,17,14,05,987.10
2020,11,17,14,06,987.17
2020,11,17,14,07,987.23
2020,11,17,14,08,987.30
2020,11,17,14,09,987.34
2020,11,17,14,10,987.30
2020,11,17,14,11,987.27
2020,11,17,14,12,987.30
2020,11,17,14,13,987.30
2020,11,17,14,14,987.34
2020,11,17,14,15,987.40
2020,11,17,14,16,987.44
2020,11,17,14,17,987.47
2020,11,17,14,18,987.54
2020,11,17,14,19,987.57
2020,11,17,14,20,987.64
2020,11,17,14,21,987.54
2020,11,17,14,22,987.64
2020,11,17,14,23,987.61
2020,11,17,14,24,987.67
2020,11,17,14,25,987.74
2020,11,17,14,26,987.71
2020,11,17,14,27,987.64
2020,11,17,14,28,987.54
2020,11,17,14,29,987.67
2020,11,17,14,30,987.84
2020,11,17,14,31,987.95
2020,11,17,14,32,988.08
2020,11,17,14,33,988.05
2020,11,17,14,34,988.01
2020,11,17,14,35,988.11
2020,11,17,14,36,988.08
2020,11,17,14,37,988.25
2020,11,17,14,38,988.22
2020,11,17,14,39,988.25
2020,11,17,14,40,988.22
2020,11,17,14,41,988.35
2020,11,17,14,42,988.39
2020,11,17,14,43,988.45
2020,11,17,14,44,988.39
2020,11,17,14,45,988.49
2020,11,17,14,46,988.49
2020,11,17,14,47,988.45
2020,11,17,14,48,988.49
2020,11,17,14,49,988.62
2020,11,17,14,50,988.66
2020,11,17,14,51,988.62
2020,11,17,14,52,988.55
2020,11,17,14,53,988.45
2020,11,17,14,54,988.52
2020,11,17,14,55,988.62
2020,11,17,14,56,988.66
2020,11,17,14,57,988.72
2020,11,17,14,58,988.72
2020,11,17,14,59,988.76
2020,11,17,15,00,988.83
2020,11,17,15,01,988.86
2020,11,17,15,02,988.83
2020,11,17,15,03,988.83
2020,11,17,15,04,988.83
2020,11,17,15,05,988.83
2020,11,17,15,06,988.83
2020,11,17,15,07,988.93
2020,11,17,15,08,988.93
2020,11,17,15,09,988.86
2020,11,17,15,10,988.89
2020,11,17,15,11,988.93
2020,11,17,15,12,988.93
2020,11,17,15,13,988.89
2020,11,17,15,14,988.72
2020,11,17,15,15,988.86
2020,11,17,15,16,988.89
2020,11,17,15,17,988.93
2020,11,17,15,18,989.00
2020,11,17,15,19,989.03
2020,11,17,15,20,989.00
2020,11,17,15,21,988.93
2020,11,17,15,22,988.96
2020,11,17,15,23,989.06
2020,11,17,15,24,989.10
2020,11,17,15,25,989.16
2020,11,17,15,26,989.20
2020,11,17,15,27,989.23
2020,11,17,15,28,989.27
2020,11,17,15,29,989.27
2020,11,17,15,30,989.20
2020,11,17,15,31,989.23
2020,11,17,15,32,989.27
2020,11,17,15,33,989.27
2020,11,17,15,34,989.27
2020,11,17,15,35,989.33
2020,11,17,15,36,989.33
2020,11,17,15,37,989.33
2020,11,17,15,38,989.37
2020,11,17,15,39,989.33
2020,11,17,15,40,989.37
2020,11,17,15,41,989.37
2020,11,17,15,42,989.40
2020,11,17,15,43,989.37
2020,11,17,15,44,989.37
2020,11,17,15,45,989.37
2020,11,17,15,46,989.37
2020,11,17,15,47,989.47
2020,11,17,15,48,989.54
2020,11,17,15,49,989.50
2020,11,17,15,50,989.47
2020,11,17,15,51,989.50
2020,11,17,15,52,989.47
2020,11,17,15,53,989.47
2020,11,17,15,54,989.47
2020,11,17,15,55,989.50
2020,11,17,15,56,989.54
2020,11,17,15,57,989.67
2020,11,17,15,58,989.71
2020,11,17,15,59,989.81
2020,11,17,16,00,989.84
2020,11,17,16,01,989.88
2020,11,17,16,02,989.60
2020,11,17,16,03,989.64
2020,11,17,16,04,989.71
2020,11,17,16,05,989.77
2020,11,17,16,06,989.74
2020,11,17,16,07,989.71
2020,11,17,16,08,989.77
2020,11,17,16,09,989.71
2020,11,17,16,10,989.77
2020,11,17,16,11,989.81
2020,11,17,16,12,989.91
2020,11,17,16,13,989.91
2020,11,17,16,14,989.91
2020,11,17,16,15,989.94
2020,11,17,16,16,990.01
2020,11,17,16,17,990.04
2020,11,17,16,18,990.04
2020,11,17,16,19,990.08
2020,11,17,16,20,990.15
2020,11,17,16,21,990.15
2020,11,17,16,22,990.18
2020,11,17,16,23,990.15
2020,11,17,16,24,990.15
2020,11,17,16,25,990.18
2020,11,17,16,26,990.15
2020,11,17,16,27,990.25
2020,11,17,16,28,990.11
2020,11,17,16,29,990.15
2020,11,17,16,30,990.21
2020,11,17,16,31,990.32
2020,11,17,16,32,990.32
2020,11,17,16,33,990.32
2020,11,17,16,34,990.35
2020,11,17,16,35,990.25
2020,11,17,16,36,990.25